CST,Max TemperatureF,Mean TemperatureF,Min TemperatureF,Max Dew PointF,MeanDew PointF,Min DewpointF,Max Humidity, Mean Humidity, Min Humidity, Max Sea Level PressureIn, Mean Sea Level PressureIn, Min Sea Level PressureIn, Max VisibilityMiles, Mean VisibilityMiles, Min VisibilityMiles, Max Wind SpeedMPH, Mean Wind SpeedMPH, Max Gust SpeedMPH,PrecipitationIn, CloudCover, Events, WindDirDegrees
2012-12-1,60,44,28,54,42,27,93,82,72,30.11,29.97,29.86,10,7,2,10,6,16,0.04,5,,149
2012-12-2,57,49,41,54,49,39,100,90,82,30.04,29.96,29.86,10,4,0,12,4,,0.00,7,,250
2012-12-3,69,55,41,61,53,39,100,84,68,30.00,29.86,29.74,10,6,0,25,7,32,0.03,7,,194
2012-12-4,59,48,37,43,34,25,87,65,36,30.33,30.14,29.96,10,10,10,20,8,24,0.00,0,,295
2012-12-5,42,34,26,28,21,16,80,60,36,30.44,30.33,30.17,10,10,10,14,8,,0.00,0,,94
2012-12-6,48,42,35,37,33,27,81,71,58,30.15,30.00,29.89,10,10,10,9,7,16,0.00,5,,180
2012-12-7,42,40,37,39,35,30,93,80,65,29.96,29.93,29.89,10,9,3,12,5,,0.12,8,,36
2012-12-8,39,36,33,36,31,28,93,80,70,30.06,30.00,29.89,10,9,4,14,9,16,0.04,7,,39
2012-12-9,39,34,30,37,33,25,93,86,80,30.04,29.85,29.75,10,6,1,22,12,31,0.09,8,,77
2012-12-10,30,28,26,27,23,19,93,81,74,29.98,29.87,29.77,10,10,7,23,16,31,0.00,8,,282
2012-12-11,35,27,19,21,19,14,86,72,52,30.13,30.02,29.97,10,10,10,15,7,21,0.00,2,,237
2012-12-12,46,34,23,27,23,16,80,64,43,30.25,30.20,30.13,10,10,10,10,4,21,0.00,0,,188
2012-12-13,50,39,26,28,25,21,86,60,40,30.23,30.16,30.08,10,10,10,10,5,20,0.00,0,,201
2012-12-14,48,36,23,36,28,19,93,72,50,30.17,30.09,29.97,10,10,10,13,3,16,0.00,2,,128
2012-12-15,48,44,39,46,41,36,93,87,81,29.96,29.68,29.52,10,8,3,17,9,28,0.32,8,,175
2012-12-16,48,42,37,45,35,30,87,83,75,29.75,29.67,29.58,10,10,7,20,12,24,0.00,8,,277
2012-12-17,35,32,30,32,29,27,93,81,75,29.75,29.73,29.69,10,7,3,9,5,,0.00,8,,307
2012-12-18,42,36,30,37,31,27,87,81,75,29.88,29.69,29.54,10,6,3,18,7,28,0.00,8,,245
2012-12-19,37,35,33,34,30,28,87,81,70,30.04,29.95,29.68,10,6,3,24,8,30,0.06,8,,68
2012-12-20,42,38,33,39,35,28,93,88,81,29.66,29.29,29.10,9,4,1,33,21,50,0.80,8,Thunderstorm,30
2012-12-21,24,18,12,18,12,7,85,70,59,30.23,30.08,29.83,10,10,9,23,17,31,0.00,0,,290
2012-12-22,30,20,10,21,13,3,100,77,64,30.23,30.11,29.94,10,10,10,9,4,,0.00,0,,195
2012-12-23,30,22,14,25,17,10,93,79,68,30.04,29.98,29.92,10,10,5,15,4,21,0.00,3,,29
2012-12-24,30,27,23,25,22,18,86,80,69,30.14,29.97,29.88,10,10,4,15,9,17,0.00,8,,3
2012-12-25,26,20,14,16,13,9,80,73,64,30.35,30.26,30.15,10,10,10,16,9,21,0.00,3,,5
2012-12-26,28,26,23,21,20,16,80,75,69,30.21,30.12,30.05,10,10,10,17,12,23,0.00,8,,4
2012-12-27,30,26,21,25,20,16,86,75,69,30.20,30.15,30.09,10,10,10,13,8,,0.00,8,,34
2012-12-28,30,29,28,27,25,21,93,84,74,30.09,29.99,29.90,10,8,3,9,4,,0.00,8,,122
2012-12-29,28,20,12,27,17,7,93,78,68,30.25,30.06,29.89,10,8,2,21,12,25,0.00,7,,297
2012-12-30,33,22,10,25,15,5,85,76,63,30.33,30.22,30.04,10,7,4,8,3,,0.00,0,,215
2012-12-31,35,27,19,25,18,10,80,71,60,30.17,30.07,30.01,10,10,10,18,10,22,0.00,5,,280